Weather in Ismailly

Azerbaijan     40°47′31″N   48°09′58″E
temp.,
°C
wind,
m/s
gust,
m/s
humid.,
%
clouds,
%
prec.,
mm/h
press.,
hPa
HPBL,
m
2 december, thu
thu201:00+6ese3681100 1.1 1010743
04:00+4e3592100 8.8 1011350
07:00+4w1192100 1.6 1013270
10:00+4ssw1194100 1.8 1015321
13:00+4sw2286100 0.2 1015666
16:00+5se117596 0.3 1018355
19:00+3e228432 0.0 102224
22:00+2nne226992 0.1 102521
3 december, fri
fri301:00+3wnw248680 0.1 1027266
04:00+2wnw248494 0.1 1027418
07:00+2wnw238154 0.0 1028180
10:00+3wnw23695 0.0 1029445
13:00+5w45625 0.0 1026798
16:00+5wnw34636 0.0 1025699
19:00+2nnw227961 0.0 102619
22:00+1nnw227350 0.0 102514
4 december, sat
sat401:00+1n22625 0.0 102414
04:00+1n22640 0.0 102413
07:000n21645 0.0 102410
10:00+3wnw11592 0.0 1024204
13:00+6wsw22540 0.0 1021534
16:00+6wsw22570 0.0 1020330
19:00+3nne22710 0.0 102112
22:00+2n22646 0.0 102215
5 december, sun
sun501:00+2nnw2256100 0.0 102012
04:00+3n2255100 0.0 101812
07:00+2n22542 0.0 101811
10:00+6wnw12444 0.0 1017100
13:00+8wsw22419 0.0 1015363
16:00+8wsw224896 0.0 1014223
19:00+5nnw215641 0.0 101611
22:00+5n1149100 0.0 101610
6 december, mon
mon601:00+4ne115284 0.0 101610
04:00+4ne2249100 0.0 101811
07:00+5e1149100 0.0 101910
10:00+6ese004895 0.0 102173
13:00+8ssw214420 0.0 1021513
16:00+8ssw11485 0.0 1021270
19:00+5ene11621 0.0 102310
22:00+4ne11650 0.0 102510